Simultaneous Nadir Overpasses (SNOs) Predictions

Prediction of SNOs between NOAA-19 and METOP-C Satellite Orbit:

Table of predicted SNOs for the next 14.0 days since TLE Epoch: 1/25/2020
Index Date (NOAA-19) Time (NOAA-19) Lat,Lon (NOAA-19) SZA (NOAA-19 ) Date (METOP-C) Time (METOP-C) Lat,Lon (METOP-C) SZA (METOP-C ) Distance(km) Time Diff (sec)
1 01/25/2020 10:45:50 79.74, 38.57 99.15 01/25/2020 10:46:46 79.75, 38.62 99.17 1.45 56
2 01/25/2020 11:36:47 -79.74,-154.19 80.87 01/25/2020 11:37:28 -79.74,-154.14 80.86 0.88 41
3 01/25/2020 12:27:50 79.72, 13.27 99.12 01/25/2020 12:28:07 79.74, 13.20 99.14 2.49 17
4 01/25/2020 13:18:47 -79.72,-179.48 80.89 01/25/2020 13:18:49 -79.73,-179.55 80.89 1.71 2
5 01/25/2020 14:09:51 79.73, -12.33 99.11 01/25/2020 14:09:28 79.73, -12.21 99.11 2.41 23
6 01/25/2020 15:00:48 -79.73, 154.93 80.91 01/25/2020 15:00:10 -79.73, 155.04 80.92 2.33 38
7 01/25/2020 15:51:51 79.71, -37.63 99.08 01/25/2020 15:50:49 79.73, -37.62 99.08 1.35 62
8 01/25/2020 16:42:45 -79.63, 130.51 80.96 01/25/2020 16:41:33 -79.65, 129.07 81.03 28.91 72
9 02/05/2020 05:11:28 79.77, 122.31 96.21 02/05/2020 05:12:33 79.77, 122.35 96.22 0.84 65
10 02/05/2020 06:02:27 -79.75, -70.20 83.82 02/05/2020 06:03:15 -79.77, -70.29 83.79 3.42 48
11 02/05/2020 06:53:28 79.75, 97.01 96.18 02/05/2020 06:53:54 79.76, 96.94 96.19 1.82 26
12 02/05/2020 07:44:28 -79.75, -95.80 83.83 02/05/2020 07:44:36 -79.76, -95.70 83.82 2.20 8
13 02/05/2020 08:35:29 79.76, 71.41 96.16 02/05/2020 08:35:15 79.75, 71.52 96.16 2.44 14
14 02/05/2020 09:26:27 -79.74,-121.09 83.86 02/05/2020 09:25:56 -79.76,-121.11 83.85 2.27 31
15 02/05/2020 10:17:28 79.74, 46.11 96.13 02/05/2020 10:16:35 79.74, 46.11 96.13 0.36 53




NCC Satellite Simultaneous Nadir Overpasses (SNOs) Prediction Service
